Tracking 26933 objects as of 5-Feb-2023
HD Live streaming from Space Station
objects crossing your sky now

SHIYAN 13 (SY-13)

Track SHIYAN 13 (SY-13) now!
10-day predictions


NORAD ID: 51102
Int'l Code: 2022-004A
Perigee: 480.7 km
Apogee: 1,304.1 km
Inclination: 98.6 °
Period: 102.7 minutes
Semi major axis: 7263 km
RCS: Unknown
Launch date: January 17, 2022
Source: People's Republic of China (PRC)
Launch site: Taiyaun Space Center, China (TSC)
Your satellite tracking list
Your tracking list is empty




NASA's NSSDC Master Catalog

Two Line Element Set (TLE):
1 51102U 22004A   23035.92201841  .00000629  00000-0  10324-3 0  9997
2 51102  98.6092 100.1777 0566835 105.9281 260.5079 14.02467607 54484
Source of the keplerian elements: AFSPC